Аспиндза

Грузия     41°34′33″N   43°15′08″E
темп.,
°C
ветер,
м/с
пор.,
м/с
влажн.,
%
обл.,
%
осадки,
мм/ч
давл.,
гПа
погр.,
м
6 марта, сб
сб601:00−7ююв23620 0.0 102635
04:00−8ююв23550 0.0 102735
07:00−9ююв33531 0.0 102734
10:00−5юв23620 0.0 1025117
13:000юв23680 0.0 1022231
16:00+2юв237421 0.0 1020167
19:00−3ююв336599 0.0 102136
22:00−4ююв235898 0.0 102239
7 марта, вс
вс701:00−4ююв1262100 0.0 102236
04:00−4ююв1165100 0.0 102126
07:00−5ююв1267100 0.0 102034
10:00−3юв126773 0.0 1020166
13:00−1вюв116961 0.0 1019450
16:000ссз466980 0.4 10201020
19:00−4ссз349299 0.4 1022213
22:00−6с229098 0.7 1024142
8 марта, пн
пн801:00−7в1190100 0.1 1023139
04:00−8юв128499 0.1 1023121
07:00−7ююв118397 0.0 102197
10:00−6вюв119099 0.3 1020190
13:00−3ссв1283100 0.3 1017408
16:00−2ссз2281100 0.4 1015435
19:00−3ссз2394100 0.4 1016191
22:00−4ссз2293100 0.8 1018166
9 марта, вт
вт901:00−6сз129497 0.1 1019133
04:00−7ю128897 0.3 1019123
07:00−8ю227978 0.0 102078
10:00−6юв237047 0.0 1020228
13:00−3вюв12620 0.0 1018706
16:00−1сз264945 0.0 10181534
19:00−4сз256290 0.0 1021174
22:00−6ю226685 0.0 102445
10 марта, ср
ср1001:00−7ююв226151 0.0 1025130
04:00−8ююв226232 0.0 1024115
07:00−9ююв236812 0.0 1025121
10:00−6юв236611 0.0 1023247
13:00−2вюв236281 0.0 1020471
16:00−1юв226289 0.0 1018631
19:00−3юв127599 0.0 1018162
22:00−4юв1286100 0.3 1018148